Regional Weather Roundup
Issued by NWS Lake Charles, LA

Home | Current Version | Previous Version | Text Only | Print | Product List | Glossary On
Versions: 1 2 3 4 5 6 7 8 9 10 11 12 13 14 15 16 17 18 19 20 21 22 23 24 25 26 27 28
000
ASUS44 KLCH 281110
RWRLCH
REGIONAL WEATHER ROUNDUP
NATIONAL WEATHER SERVICE LAKE CHARLES LA
500 AM CST TUE FEB 28 2017

Note: "fair" indicates few or no clouds below 12,000 feet with no
significant weather and/or obstructions to visibility.


ACROSS SOUTHEAST TEXAS

CITY           SKY/WX    TMP DP  RH WIND       PRES   REMARKS
BEAUMONT       CLOUDY    71  68  90 S12       30.02R
BEAUMONT CITY  CLOUDY    72  69  90 S9        30.02R
ORANGE         CLOUDY    71  69  96 S8        30.05R FOG
JASPER         DRIZZLE   73  70  91 S8        30.01F
$$

ACROSS CENTRAL LOUISIANA

CITY           SKY/WX    TMP DP  RH WIND       PRES   REMARKS
LEESVILLE      CLOUDY    71  68  90 S13       30.01R
FULLERTON      CLOUDY    72  68  87 VRB6      30.00R
ALEXANDRIA INT CLOUDY    72  67  84 S10       30.02R
ESLER FIELD    CLOUDY    71  69  93 S8        30.04R
DERIDDER       CLOUDY    72  71  96 S12       30.04R
OAKDALE        CLOUDY    72  68  88 S9        30.03R
OPELOUSAS      CLOUDY    71  67  89 MISG      30.06R
$$

ACROSS SOUTHWEST AND SOUTH CENTRAL LOUISIANA

CITY           SKY/WX    TMP DP  RH WIND       PRES   REMARKS
SULPHUR        CLOUDY    71  69  95 S9        30.05R
LAKE CHARLES   CLOUDY    71  69  93 S7        30.04R
CHENNAULT INT  CLOUDY    71  69  95 S9        30.05R
CAMERON PHI    PTSUNNY   68  68 100 S9        30.03R FOG
DEQUINCY       CLOUDY    71  68  90 S9        30.04R
JENNINGS       CLOUDY    70  68  93 S10G16    30.05R
LAFAYETTE      CLOUDY    73  70  90 S10       30.06S
NEW IBERIA     CLOUDY    71  67  87 S14       30.07R
ABBEVILLE      CLOUDY    70  70 100 S12       30.06S
PATTERSON      CLOUDY    72  70  93 S9G18     30.08S
SALT POINT       N/A     69  68  96 VRB7      30.06S
$$

SELECTED SITES ACROSS THE REGION

CITY           SKY/WX    TMP DP  RH WIND       PRES   REMARKS
HOUSTON BUSH   CLOUDY    73  70  90 S10       29.97S FOG
HOUSTON HOBBY  CLOUDY    72  70  93 S9        29.97R
GALVESTON      CLOUDY    70  70 100 SE10      30.00R FOG
COLLEGE STAT   CLOUDY    72  69  90 S10       29.93S FOG
CONROE         CLOUDY    72  69  90 S12       29.96S FOG
HUNTSVILLE     CLOUDY    73  68  84 S10       29.94F HAZE
LUFKIN         CLOUDY    71  68  90 S7        29.95F FOG
SHREVEPORT     CLOUDY    66  66 100 SE3       29.95S FOG
MONROE         CLOUDY    67  65  93 S6        30.03R
NATCHEZ MS     CLOUDY    70  64  83 S12       30.07R
BATON ROUGE    MOCLDY    72  68  87 S9        30.07S
N.O. INTL ARPT MOCLDY    71  70  96 S13G21    30.10S
SLIDELL        CLOUDY    71  70  96 S14G22    30.11S FOG
$$

MARINE REPORTS

STATION/POSITION TIME  SKY/WX   TEMP    WIND        PRES    VSBY
                                AIR SEA DIR/SP/G
                 (UTC)          (F)     (DEG/KT/KT) (MB)    (MI)
BUOY 30 S HIGH I 0950            68 67  160/ 10/ 12 1015.4
WVE H/P(F/S)=  4/ 7

SEA RIM ST PARK  1100            68     150/  6/  7 1017.3R
PORT ARTHUR      1048               67  180/  6/ 10 1017.0R
SABINE PASS N    1048            69 69  150/  9/ 12 1018.0R
TEXAS POINT      NOT AVBL
CALCASIEU PASS   1048            69 68  170/ 10/ 14   N/A
LK CHARLES BEACH 1048            71 67              1017.7R
MARSH ISLAND     1000            74                   N/A
FRESH WATER LOCK 1048            69 69  130/  9/ 12 1018.2F
AMERADA PASS     1048            70 59  150/  7/ 12 1018.5R
$$




USA.gov is the U.S. government's official web portal to all federal, state and local government web resources and services.